Regional Weather Roundup
Issued by NWS

Home | Current Version | Previous Version | Graphics & Text | Print | Product List | Glossary On
Versions: 1 2 3 4 5 6 7 8 9 10 11 12 13 14 15 16 17 18 19 20 21 22 23 24 25 26 27 28 29 30 31 32 33 34 35 36 37 38 39 40 41 42 43 44 45 46 47 48 49 50
000
ASUS43 KLMK 030902
RWRKY
KENTUCKY REGIONAL WEATHER ROUNDUP
NATIONAL WEATHER SERVICE LOUISVILLE KY
500 AM EDT WED JUN 03 2015

NOTE "FAIR" INDICATES FEW OR NO CLOUDS BELOW 12,000 FEET
WITH NO SIGNIFICANT WEATHER AND/OR OBSTRUCTIONS TO VISIBILITY.

KYZ001>023-026-027-061>063-070>075-031000-
WESTERN AND SOUTH CENTRAL KENTUCKY

CITY           SKY/WX    TMP DP  RH WIND       PRES   REMARKS
PADUCAH        CLOUDY    62  58  86 E5        30.02S
HENDERSON      CLEAR     57  54  88 CALM      30.02F
OWENSBORO      CLOUDY    59  55  86 E6        30.05F
HOPKINSVILLE   PTCLDY    59  57  94 NE5       30.02R
BOWLING GREEN  CLOUDY    60  53  77 E5        30.04R
GLASGOW        NOT AVBL
$$

KYZ024-025-028>034-038-045-046-053-031000-
NORTH CENTRAL KENTUCKY

CITY           SKY/WX    TMP DP  RH WIND       PRES   REMARKS
LOUISVILLE/SDF CLOUDY    62  53  72 E7        30.05S
LOUISVILLE/LOU CLOUDY    61  53  75 CALM      30.05S
FORT KNOX      CLOUDY    58  54  85 NE6       30.03S
$$

KYZ035>037-039>044-047>052-055>060-089>105-031000-
NORTHEAST KENTUCKY

CITY           SKY/WX    TMP DP  RH WIND       PRES   REMARKS
LEXINGTON      CLOUDY    58  55  90 NE6       30.05S
COVINGTON      CLEAR     54  51  90 E5        30.06S
FRANKFORT      CLOUDY    59  54  83 E5        30.04S
$$

KYZ054-064>069-076>088-106>120-031000-
SOUTHEAST KENTUCKY

CITY           SKY/WX    TMP DP  RH WIND       PRES   REMARKS
JACKSON        CLOUDY    57  54  89 CALM      30.05R FOG
LONDON         CLOUDY    59  54  83 NE3       30.03F
SOMERSET       NOT AVBL
MIDDLESBORO    CLOUDY    61  58  90 CALM      30.02F
MONTICELLO     CLOUDY    59  59 100 CALM      30.05F
$$



USA.gov is the U.S. government's official web portal to all federal, state and local government web resources and services.